一网星座-0669星 (ONEWEB-0669)

导读

ONEWEB-0669是英国OneWeb公司的低轨宽带通信卫星,于2023年3月9日由SpaceX猎鹰9号火箭在美国卡纳维拉尔角航天站发射升空,属于OneWeb第一代全球卫星互联网星座组网卫星,运行在近地轨道。本次任务共发射40颗同批次卫星,完成后OneWeb在轨卫星达到582颗,推动OneWeb星座逐步实现全球覆盖,为世界各地客户提供高速低延迟互联网连接服务。

基本信息
目录编号:
55828
目录名称:
ONEWEB-0669
国际标识:
2023-029AJ
轨道中心:
EARTH
卫星名称:
一网星座-0669星
卫星全名:
一网星座-0669星 (ONEWEB-0669)
卫星状态:
在轨 (已飞行1283 天)
发射日期:
2023-03-09 UTC
国别 :
英国 (GB)
星等 :
--
该卫星已列入 空间交会检测服务 Space Conjunction Data Service (SCDS) ,当前飞行风险评估等级: 无高风险
轨道信息
数据来源 国际轨道数据 AOE轨道数据
星历时间 2026-09-11T20:53:04+0800
14小时前
查看轨道信息
2026-09-10T17:00:00+0800
1天前
查看轨道信息
半长轴 7559.907km 7559.914km
偏心率 0.0002237 0.0001824
轨道倾角 87.913° 87.915°
近地点辐角 102.516° 113.159°
升交点赤经 257.216° 257.447°
平近点角 257.622° 125.791°
近地点 1180.078km 1180.398km
远地点 1183.462km 1183.156km
周期 109.027分钟 109.027分钟
每日圈数 13.207728 13.20771
详细信息
平衡模式:
三轴稳定
覆盖范围:
全球
运营商:
一网卫星公司
运营商所在国:
英国
制造商(研发单位):
一网卫星公司
制造商所在国:
英国
使用方式:
暂无
卫星简介
OneWeb卫星网络由648颗重约125公斤的微型卫星组成,运行在1200公里的轨道上。 每颗卫星都能够提供至少每秒8千兆位的吞吐量,以使用其高吞吐量的Ku频段有效载荷为家庭和移动平台提供互联网接入。该卫星仍在工作。
2D轨道图
3D轨道图
轨道高度分析图
轨道倾角分析图
轨道综合分析图
查看轨道综合分析图
与全量物体交会距离演化趋势
与全量物体交会风险概率演化趋势